sat.trackr.live / text

‹ back to catalog

STARLINK-11117 [DTC]

NORAD 59761 · 2024-091J

PAYLOAD ACTIVE UNKNOWN

§ Identity

Operator
Country
US
Launch date
2024-05-14
Launch site
AFWTR
Launch vehicle
Mass (kg)
RCS (m²)

Purposes: comms

External: N2YO · Heavens-Above · Gunter

§ Orbital elements

Epoch: 2026-09-21T11:08:30.837984Z

Period
91.74 min
Inclination
53.1587°
Eccentricity
0.0000718
Mean motion
15.69706465 rev/d
Perigee alt
359.3 km
Apogee alt
360.2 km
Semi-major
6,737.9 km
B*
1.6287e-6
RAAN
321.0380°
Arg perigee
76.1811°
Mean anomaly
283.9287°
Rev number
13,626

§ Raw data

STARLINK-11117 [DTC]1 59761U 24091J   26264.46424581 -.00000391  00000+0  16287-5 0  99902 59761  53.1587 321.0380 0000718  76.1811 283.9287 15.69706465136262

JSON: /api/v1/satellites/59761 · /tle

For live sub-satellite position, see the globe view (requires WebGL).

§ Visibility from observer

Set your observer location to see the next 7 days of passes ≥ 10°. The values pass through the URL so the page stays shareable.

No JS? Fill the form by hand. The geolocation button needs JavaScript.